SRMSAT

Last updated on Mon Sep 15 2025 00:02:30 GMT+0000 (Coordinated Universal Time)

1 37841U 11058D 25257.24063725 .00000405 00000+0 76394-4 0 9999 2 37841 19.9720 289.6050 0011936 48.7460 24.5741 14.11463844718782
UTC large
Height (km)
Speed (km/s)
/
Latitude / Longitude
Inclination (degrees)
Orbital Period (minutes)
Azimuth
Elevation
Range (km)
Doppler Factor

Next 0 passes for location: London (51.5072 / 0.1276)

Sorry there are no passes over London.